This demonstration page uses our WeatherBlox Daily Observations layout. Learn more.

Left ArrowRight Arrow

41.86663, -103.66717

Hourly Observations for September 17, 2018

Temp ( °F °C ) Dew Point ( °F °C ) Humidity (%) Winds ( mph kmh ) Pressure ( in mb ) Visibility ( mi km ) Precip ( " mm )
12:45 am 00:45 Partly Cloudy with Nearby Thunderstorms 68 20 59 15 73 73 SSW 8 13 29.77 1008 10 16 N/A
12:53 am 00:53 Partly Cloudy with Nearby Thunderstorms 67 19.4 59 15 76 76 N N/A 29.80 1009 10 16 N/A
1:43 am 01:43 Clear 64 17.8 59 15 84 84 ESE 8 13 29.77 1008 10 16 N/A
1:53 am 01:53 Clear 65 18.3 59 15 81 81 ESE 9 15 29.77 1008 10 16 N/A
2:53 am 02:53 Clear 62 16.7 59 15 90 90 E 5 7 29.77 1008 10 16 N/A
3:53 am 03:53 Clear 58 14.4 57 13.9 97 97 N 3 6 29.79 1009 10 16 N/A
4:53 am 04:53 Clear 59 15 57 13.9 93 93 NNW 5 7 29.80 1009 10 16 N/A
5:53 am 05:53 Clear 58 14.4 57 13.9 97 97 N 5 7 29.83 1010 10 16 N/A
6:53 am 06:53 Sunny 58 14.4 58 14.4 100 100 NNW 6 9 29.86 1011 10 16 N/A
7:53 am 07:53 Sunny 62 16.7 58 14.4 86 86 WSW 5 7 29.85 1011 9 14 N/A
8:53 am 08:53 Sunny 72 22.2 60 15.6 66 66 N N/A 29.83 1010 10 16 N/A
9:53 am 09:53 Sunny 77 25 59 15 54 54 ENE 3 6 29.85 1011 10 16 N/A
10:53 am 10:53 Sunny 81 27.2 59 15 47 47 SE 8 13 29.84 1010 10 16 N/A
11:53 am 11:53 Sunny 86 30 55 12.8 35 35 E 3 6 29.82 1010 10 16 N/A
12:53 pm 12:53 Sunny 89 31.7 50 10 26 26 VRB 3 6 29.80 1009 10 16 N/A
1:53 pm 13:53 Sunny 92 33.3 48 8.9 22 22 NW 5 7 29.77 1008 10 16 N/A
2:53 pm 14:53 Sunny 93 33.9 47 8.3 21 21 VRB 5 7 29.75 1008 10 16 N/A
3:53 pm 15:53 Sunny 92 33.3 43 6.1 18 18 SW 3 6 29.75 1007 10 16 N/A
4:22 pm 16:22 Sunny with Nearby Thunderstorms 91 33 45 7 20 20 SW 8 13 29.56 1001 10 16 N/A
4:45 pm 16:45 Sunny 89 31.7 48 8.9 24 24 S 20 31 29.59 1002 10 16 N/A
4:53 pm 16:53 Sunny 87 30.6 50 10 28 28 S 22 35 29.77 1008 10 16 N/A
5:53 pm 17:53 Sunny 83 28.3 52 11.1 34 34 SE 13 20 29.77 1008 10 16 N/A
6:53 pm 18:53 Hazy 76 24.4 55 12.8 48 48 N N/A 29.80 1009 3 5 N/A
7:53 pm 19:53 Clear 78 25.6 50 10 37 37 SE 12 19 29.79 1009 10 16 N/A
8:53 pm 20:53 Partly Cloudy 73 22.8 53 11.7 50 50 SSW 6 9 29.85 1011 10 16 N/A
9:53 pm 21:53 Clear 69 20.6 51 10.6 53 53 N 7 11 29.79 1009 10 16 N/A
10:53 pm 22:53 Mostly Clear 70 21.1 61 16.1 73 73 N 12 19 29.80 1009 10 16 N/A
11:01 pm 23:01 Clear 68 20 61 16.1 78 78 NE 14 22 29.77 1008 10 16 N/A
11:53 pm 23:53 Mostly Cloudy with Light Rain 66 18.9 61 16.1 84 84 N 10 17 29.85 1011 10 16 N/A

Powered by AerisWeather